When you browse on this site, cookies collect data to enhance your experience and personalize the content and advertising you see.
Visit our Privacy Policy to learn more. By continuing to use the site, you agree to this use of cookies and data.
  • In France
  • List of Countries
  • For 7 days
  • Water Temperature
  • Weather Map
  • Weather Widgets
  • user-avatar
    Login

    Hourly Weather Rogawica

    Today, 14 October, Monday

    Time Temperature Precipitation Wind Pressure Humidity
    00:00 +17°C° 0.1 mm 7 mps 750 mmHg 78%
    01:00 +17°C° 0.1 mm 7 mps 749 mmHg 74%
    02:00 +17°C° 0 mm 7 mps 749 mmHg 76%
    03:00 +16°C° 0 mm 7 mps 749 mmHg 78%
    04:00 +16°C° 0 mm 7 mps 749 mmHg 80%
    05:00 +16°C° 0 mm 7 mps 750 mmHg 82%
    06:00 +16°C° 0 mm 7 mps 750 mmHg 84%
    07:00 +16°C° 0 mm 7 mps 751 mmHg 86%
    08:00 +16°C° 0 mm 8 mps 751 mmHg 82%
    09:00 +16°C° 0 mm 8 mps 752 mmHg 78%
    10:00 +16°C° 0 mm 9 mps 752 mmHg 75%
    11:00 +16°C° 0 mm 9 mps 752 mmHg 73%
    12:00 +16°C° 0 mm 9 mps 753 mmHg 71%
    13:00 +16°C° 0 mm 8 mps 753 mmHg 70%
    14:00 +15°C° 0 mm 7 mps 754 mmHg 73%
    15:00 +14°C° 0 mm 6 mps 754 mmHg 75%
    16:00 +13°C° 0 mm 6 mps 754 mmHg 78%
    17:00 +13°C° 0 mm 4 mps 755 mmHg 82%
    18:00 +12°C° 0 mm 3 mps 755 mmHg 86%
    19:00 +12°C° 0 mm 2 mps 755 mmHg 90%
    20:00 +11°C° 0 mm 1 mps 755 mmHg 90%
    21:00 +11°C° 0 mm 1 mps 755 mmHg 90%
    22:00 +10°C° 0 mm 0 mps 755 mmHg 89%
    23:00 +11°C° 0 mm 1 mps 755 mmHg 88%

    Tomorrow, 15 October, Tuesday

    Time Temperature Precipitation Wind Pressure Humidity
    00:00 +10°C° 0 mm 2 mps 755 mmHg 87%
    01:00 +10°C° 0 mm 3 mps 755 mmHg 86%
    02:00 +10°C° 0 mm 3 mps 755 mmHg 85%
    03:00 +8°C° 0 mm 4 mps 755 mmHg 84%
    04:00 +8°C° 0 mm 4 mps 754 mmHg 83%
    05:00 +9°C° 0 mm 5 mps 754 mmHg 83%
    06:00 +9°C° 0 mm 5 mps 754 mmHg 82%
    07:00 +9°C° 0 mm 6 mps 754 mmHg 81%
    08:00 +12°C° 0 mm 5 mps 753 mmHg 79%
    09:00 +13°C° 0 mm 5 mps 753 mmHg 76%
    10:00 +15°C° 0 mm 5 mps 753 mmHg 73%
    11:00 +16°C° 0 mm 5 mps 752 mmHg 70%
    12:00 +17°C° 0 mm 5 mps 752 mmHg 68%
    13:00 +19°C° 0 mm 5 mps 751 mmHg 66%
    14:00 +19°C° 0 mm 4 mps 750 mmHg 69%
    15:00 +18°C° 0 mm 4 mps 750 mmHg 72%
    16:00 +18°C° 0 mm 4 mps 749 mmHg 75%
    17:00 +17°C° 0 mm 4 mps 749 mmHg 76%
    18:00 +15°C° 0 mm 4 mps 749 mmHg 78%
    19:00 +14°C° 0 mm 4 mps 748 mmHg 80%
    20:00 +14°C° 0 mm 4 mps 748 mmHg 80%
    21:00 +14°C° 0 mm 4 mps 748 mmHg 80%
    22:00 +14°C° 0 mm 4 mps 748 mmHg 81%
    23:00 +14°C° 0 mm 4 mps 747 mmHg 80%

    Day after tomorrow, 16 October, Wednesday

    Time Temperature Precipitation Wind Pressure Humidity
    00:00 +14°C° 0 mm 4 mps 747 mmHg 80%
    01:00 +14°C° 0 mm 4 mps 747 mmHg 80%
    02:00 +13°C° 0 mm 4 mps 747 mmHg 80%
    03:00 +13°C° 0 mm 4 mps 746 mmHg 81%
    04:00 +13°C° 0 mm 4 mps 746 mmHg 81%
    05:00 +12°C° 0 mm 4 mps 746 mmHg 83%
    06:00 +12°C° 0 mm 4 mps 746 mmHg 84%
    07:00 +12°C° 0 mm 4 mps 746 mmHg 86%
    08:00 +13°C° 0 mm 5 mps 746 mmHg 85%
    09:00 +14°C° 0 mm 6 mps 746 mmHg 84%
    10:00 +15°C° 0 mm 6 mps 746 mmHg 83%
    11:00 +15°C° 0.1 mm 7 mps 747 mmHg 82%
    12:00 +14°C° 0.1 mm 7 mps 747 mmHg 81%
    13:00 +13°C° 0.1 mm 8 mps 748 mmHg 81%
    14:00 +14°C° 0 mm 7 mps 748 mmHg 77%
    15:00 +14°C° 0 mm 6 mps 749 mmHg 73%
    16:00 +14°C° 0 mm 5 mps 749 mmHg 69%
    17:00 +13°C° 0 mm 6 mps 749 mmHg 70%
    18:00 +11°C° 0 mm 6 mps 750 mmHg 71%
    19:00 +11°C° 0 mm 6 mps 750 mmHg 72%
    20:00 +11°C° 0 mm 7 mps 750 mmHg 72%
    21:00 +11°C° 0 mm 7 mps 750 mmHg 71%
    22:00 +11°C° 0 mm 7 mps 750 mmHg 70%
    23:00 +11°C° 0.2 mm 8 mps 750 mmHg 73%

    17 October, Thursday

    Time Temperature Precipitation Wind Pressure Humidity
    00:00 +11°C° 0.2 mm 8 mps 749 mmHg 76%
    01:00 +11°C° 0.2 mm 8 mps 749 mmHg 78%
    02:00 +11°C° 0.7 mm 9 mps 749 mmHg 80%
    03:00 +11°C° 0.7 mm 9 mps 749 mmHg 81%
    04:00 +11°C° 0.7 mm 10 mps 749 mmHg 82%
    05:00 +11°C° 0.3 mm 9 mps 749 mmHg 83%
    06:00 +11°C° 0.3 mm 9 mps 750 mmHg 85%
    07:00 +11°C° 0.3 mm 8 mps 750 mmHg 86%
    08:00 +11°C° 0 mm 7 mps 751 mmHg 86%
    09:00 +12°C° 0 mm 7 mps 751 mmHg 86%
    10:00 +13°C° 0 mm 6 mps 752 mmHg 85%
    11:00 +13°C° 0 mm 5 mps 752 mmHg 84%
    12:00 +13°C° 0 mm 5 mps 753 mmHg 83%
    13:00 +14°C° 0 mm 4 mps 753 mmHg 82%
    14:00 +13°C° 0 mm 4 mps 753 mmHg 84%
    15:00 +13°C° 0 mm 3 mps 753 mmHg 85%
    16:00 +13°C° 0 mm 3 mps 754 mmHg 87%
    17:00 +13°C° 0.2 mm 3 mps 754 mmHg 88%
    18:00 +13°C° 0.2 mm 2 mps 754 mmHg 90%
    19:00 +13°C° 0.2 mm 2 mps 754 mmHg 91%
    20:00 +13°C° 0 mm 2 mps 754 mmHg 90%
    21:00 +13°C° 0 mm 2 mps 755 mmHg 89%
    22:00 +13°C° 0 mm 2 mps 755 mmHg 87%
    23:00 +13°C° 0 mm 2 mps 755 mmHg 87%

    18 October, Friday

    Time Temperature Precipitation Wind Pressure Humidity
    00:00 +13°C° 0 mm 2 mps 755 mmHg 87%
    01:00 +13°C° 0 mm 2 mps 755 mmHg 86%
    02:00 +13°C° 0 mm 2 mps 755 mmHg 86%
    03:00 +12°C° 0 mm 2 mps 755 mmHg 85%
    04:00 +12°C° 0 mm 2 mps 755 mmHg 85%
    05:00 +11°C° 0 mm 3 mps 755 mmHg 86%
    06:00 +10°C° 0 mm 3 mps 755 mmHg 87%
    07:00 +10°C° 0 mm 3 mps 755 mmHg 88%
    08:00 +11°C° 0 mm 3 mps 755 mmHg 84%
    09:00 +13°C° 0 mm 3 mps 756 mmHg 80%
    10:00 +14°C° 0 mm 3 mps 756 mmHg 76%
    11:00 +16°C° 0 mm 3 mps 756 mmHg 73%
    12:00 +15°C° 0 mm 4 mps 756 mmHg 70%
    13:00 +17°C° 0 mm 4 mps 756 mmHg 67%
    14:00 +15°C° 0 mm 4 mps 756 mmHg 71%
    15:00 +14°C° 0 mm 4 mps 756 mmHg 74%
    16:00 +13°C° 0 mm 5 mps 756 mmHg 77%
    17:00 +12°C° 0 mm 4 mps 756 mmHg 82%
    18:00 +11°C° 0 mm 4 mps 757 mmHg 87%
    19:00 +10°C° 0 mm 3 mps 757 mmHg 92%
    20:00 +10°C° 0 mm 3 mps 757 mmHg 92%
    21:00 +9°C° 0 mm 2 mps 757 mmHg 93%
    22:00 +9°C° 0 mm 2 mps 758 mmHg 93%
    23:00 +9°C° 0 mm 2 mps 758 mmHg 92%

    19 October, Saturday

    Time Temperature Precipitation Wind Pressure Humidity
    00:00 +10°C° 0 mm 1 mps 758 mmHg 91%
    01:00 +9°C° 0 mm 1 mps 758 mmHg 90%
    02:00 +9°C° 0 mm 1 mps 757 mmHg 89%
    03:00 +9°C° 0 mm 1 mps 757 mmHg 88%
    04:00 +10°C° 0 mm 1 mps 757 mmHg 87%
    05:00 +9°C° 0 mm 2 mps 757 mmHg 85%
    06:00 +9°C° 0 mm 2 mps 757 mmHg 83%
    07:00 +9°C° 0 mm 3 mps 757 mmHg 82%
    08:00 +10°C° 0 mm 3 mps 757 mmHg 77%
    09:00 +11°C° 0 mm 3 mps 757 mmHg 72%
    10:00 +13°C° 0 mm 3 mps 757 mmHg 67%
    11:00 +14°C° 0 mm 3 mps 757 mmHg 65%
    12:00 +16°C° 0 mm 3 mps 756 mmHg 63%
    13:00 +17°C° 0 mm 3 mps 756 mmHg 60%
    14:00 +16°C° 0 mm 3 mps 756 mmHg 64%
    15:00 +16°C° 0 mm 3 mps 755 mmHg 68%
    16:00 +14°C° 0 mm 3 mps 755 mmHg 72%
    17:00 +13°C° 0 mm 3 mps 755 mmHg 77%
    18:00 +12°C° 0 mm 4 mps 755 mmHg 82%
    19:00 +11°C° 0 mm 4 mps 754 mmHg 86%
    20:00 +12°C° 0 mm 4 mps 754 mmHg 86%
    21:00 +12°C° 0 mm 4 mps 754 mmHg 85%
    22:00 +12°C° 0 mm 4 mps 754 mmHg 84%
    23:00 +12°C° 0 mm 4 mps 753 mmHg 86%
    Show more